EDT,Max TemperatureF,Mean TemperatureF,Min TemperatureF,Max Dew PointF,MeanDew PointF,Min DewpointF,Max Humidity, Mean Humidity, Min Humidity, Max Sea Level PressureIn, Mean Sea Level PressureIn, Min Sea Level PressureIn, Max VisibilityMiles, Mean VisibilityMiles, Min VisibilityMiles, Max Wind SpeedMPH, Mean Wind SpeedMPH, Max Gust SpeedMPH,PrecipitationIn, CloudCover, Events, WindDirDegrees
2013-10-1,77,64,51,61,55,46,94,73,50,30.07,30.02,29.97,10,10,10,10,3,,0.00,0,,261
2013-10-2,80,70,60,61,60,57,94,71,51,30.07,30.03,30.00,10,9,2,12,6,,0.00,0,,261
2013-10-3,77,70,62,63,61,57,94,76,53,30.13,30.09,30.06,10,9,4,10,5,,0.00,0,,129
2013-10-4,84,72,59,66,62,55,94,75,45,30.10,30.06,30.03,10,8,3,10,2,,0.00,0,,206
2013-10-5,82,73,64,66,64,61,94,83,54,30.09,30.06,30.04,10,6,0,12,4,,0.00,3,,68
2013-10-6,80,73,66,70,66,64,94,82,61,30.08,30.04,30.01,10,6,0,16,7,22,0.00,2,,136
2013-10-7,78,70,62,70,64,52,88,81,68,30.03,29.94,29.86,10,10,8,24,13,36,0.47,6,,184
2013-10-8,64,60,55,52,46,43,77,62,52,30.28,30.20,30.05,10,10,9,14,9,20,0.00,1,,6
2013-10-9,62,58,55,54,50,46,88,71,59,30.29,30.25,30.18,10,10,6,22,13,33,0.13,5,,42
2013-10-10,64,62,59,63,58,54,94,88,82,30.17,30.03,29.93,10,4,2,23,19,34,1.73,8,,43
2013-10-11,66,65,64,63,61,61,94,89,88,29.95,29.91,29.88,10,5,2,24,18,32,1.64,8,Thunderstorm,46
2013-10-12,,,,,,,,,,,,,,,,,,,,,,
2013-10-13,62,,62,54,54,54,72,72,72,30.29,30.29,30.29,10,10,10,17,17,25,0.00,8,,50
2013-10-14,66,58,51,54,51,46,88,76,64,30.27,30.26,30.25,10,10,9,15,9,17,0.00,1,,45
2013-10-15,68,59,50,57,51,46,88,76,56,30.25,30.17,30.10,10,10,10,15,7,22,0.00,3,,41
2013-10-16,62,60,57,59,57,54,94,86,82,30.09,30.04,29.95,10,8,0,7,4,,0.00,7,,54
2013-10-17,73,66,60,63,60,57,94,83,69,29.95,29.87,29.77,10,9,2,16,6,22,0.00,4,,186
2013-10-18,68,60,51,63,47,43,83,59,45,30.03,29.93,29.77,10,10,10,17,11,25,0.00,1,,285
2013-10-19,62,54,46,59,49,41,88,78,52,30.03,29.93,29.82,10,10,7,14,3,20,0.02,3,,165
2013-10-20,60,52,44,54,39,34,81,57,39,30.12,30.00,29.84,10,10,9,15,10,26,0.02,1,,304
2013-10-21,66,54,42,50,41,36,87,66,32,30.19,30.12,30.01,10,10,10,15,2,18,0.00,0,,185
2013-10-22,66,57,48,52,47,39,88,69,51,30.01,29.88,29.81,10,10,10,16,3,16,0.00,1,,281
2013-10-23,55,50,46,46,39,32,87,68,47,29.84,29.74,29.62,10,10,6,13,6,21,0.31,7,Thunderstorm,347
2013-10-24,53,50,46,37,31,25,66,52,38,30.10,29.99,29.83,10,10,10,16,10,25,0.00,4,,288
2013-10-25,53,48,42,34,32,28,66,54,44,30.31,30.20,30.10,10,10,10,14,9,23,0.00,1,,303
2013-10-26,59,47,35,37,33,28,87,54,36,30.30,30.16,29.97,10,10,10,18,8,26,0.00,0,,234
2013-10-27,57,48,39,36,34,30,81,53,36,30.18,30.04,29.94,10,10,10,16,10,24,0.00,2,,277
2013-10-28,64,50,35,46,39,30,87,70,42,30.29,30.23,30.17,10,10,10,10,2,,0.00,1,,114
2013-10-29,62,53,44,48,44,37,87,73,59,30.37,30.34,30.28,10,10,10,14,6,18,0.00,1,,41
2013-10-30,59,52,46,54,49,43,94,87,77,30.35,30.27,30.21,10,10,4,7,1,,0.00,5,,170
2013-10-31,71,60,50,61,55,46,94,82,60,30.22,30.09,29.90,10,7,0,16,5,24,0.01,4,,180